[[{"header":{"parameterUnit":"m.s-1","parameterCategory":1,"la1":30.2991,"la2":30.254,"lo1":-89.0895,"lo2":-89.0444,"dy":0.0017,"dx":0.0017,"nx":28,"ny":28,"refTime":"2023-10-31T09:00:00:Z","depth":0,"parameterNumber":2,"parameterNumberName":"U-component_of_WINDS"},"data":[0,0,0,0,0,0,0,0,0,0,0,0,0,0,0,0,0,0,0,0,0,0,0,0,0,0,0,0,0,0,0,0,0,0,0,0,0,0,0,0,0,0,0,0,0,0,0,0,0,0,0,0,0,0,0,0,0,0,-1.1365,-1.1366,0,-1.1394,-1.1395,-1.1395,-1.1379,-1.1378,-1.1377,-1.1376,-1.1406,-1.1407,-1.1409,0,0,0,0,0,0,0,0,0,0,0,0,0,-1.1295,-1.1296,-1.1365,-1.1366,-1.1366,-1.1394,-1.1395,-1.1395,-1.1379,-1.1378,-1.1377,-1.1376,-1.1405,-1.1407,-1.1409,0,0,0,0,0,0,0,0,0,0,0,0,0,-1.1325,-1.1296,-1.1365,-1.1361,-1.1361,-1.1394,-1.1395,-1.1395,-1.1379,-1.1378,-1.1377,-1.1376,-1.1405,-1.1407,-1.1409,-1.1447,0,0,-1.1416,-1.1417,0,0,0,0,0,0,0,0,-1.1323,-1.1327,-1.1361,-1.1362,-1.1362,-1.1382,-1.138,-1.1413,-1.1379,-1.1372,-1.1376,-1.1375,-1.1399,-1.1401,-1.1409,-1.1449,-1.145,-1.1416,-1.1418,-1.1419,-1.1419,0,0,0,0,0,0,0,-1.1321,-1.1326,-1.1377,-1.1362,-1.1362,-1.1358,-1.1361,-1.1387,-1.1392,-1.1373,-1.1372,-1.1375,-1.1398,-1.1407,-1.141,-1.1451,-1.1416,-1.1418,-1.142,-1.1421,-1.1522,-1.1523,0,0,0,0,0,0,-1.1319,-1.1324,-1.1376,-1.1378,-1.1339,-1.136,-1.1363,-1.1376,-1.1392,-1.1393,-1.1376,-1.1375,-1.1404,-1.1407,-1.1411,-1.1457,-1.1419,-1.1421,-1.1422,-1.1521,-1.1522,-1.1524,0,0,0,0,0,0,-1.1318,-1.1324,-1.1375,-1.1351,-1.1357,-1.1362,-1.1377,-1.1378,-1.1386,-1.1394,-1.1395,-1.1385,-1.1403,-1.1408,-1.1438,-1.1458,-1.1422,-1.1424,-1.1519,-1.1521,-1.1523,-1.1549,0,0,0,0,0,0,-1.1316,-1.1323,-1.1338,-1.1351,-1.1358,-1.1402,-1.1379,-1.1379,-1.1391,-1.1388,-1.1402,-1.1403,-1.1403,-1.1435,-1.1441,-1.146,-1.1426,-1.1517,-1.152,-1.1522,-1.1546,-1.1551,-1.1555,0,0,0,0,0,-1.1313,-1.1345,-1.1339,-1.1346,-1.1377,-1.1403,-1.1407,-1.1406,-1.1392,-1.1407,-1.1412,-1.1403,-1.1454,-1.1438,-1.1445,-1.1465,-1.1516,-1.1519,-1.1522,-1.1544,-1.155,-1.1555,0,0,0,0,0,0,-1.1334,-1.1346,-1.1341,-1.1377,-1.1389,-1.14,-1.1419,-1.1413,-1.1429,-1.1426,-1.1424,-1.1427,-1.1459,-1.1465,-1.1447,-1.1502,-1.1483,-1.1487,-1.1497,-1.1503,-1.1508,-1.1506,-1.1428,0,0,0,0,0,-1.1343,-1.1363,-1.1373,-1.1404,-1.141,-1.1414,-1.1425,-1.1423,-1.1435,-1.144,-1.1447,-1.146,-1.1479,-1.1491,-1.1509,-1.1546,-1.1549,-1.1563,-1.1568,-1.1572,-1.1576,-1.1596,-1.1602,-1.1533,-1.1533,-1.1533,0,0,-1.1361,-1.137,-1.1383,-1.1408,-1.1417,-1.1438,-1.1418,-1.1441,-1.1457,-1.1444,-1.1473,-1.1479,-1.1492,-1.1526,-1.1542,-1.1532,-1.1595,-1.1576,-1.1579,-1.1581,-1.1599,-1.1606,-1.1612,-1.1535,-1.1535,-1.1535,0,0,-1.1406,-1.1415,-1.1441,-1.1451,-1.1465,-1.1467,-1.1473,-1.1486,-1.1489,-1.1518,-1.1509,-1.1527,-1.156,-1.1569,-1.1579,-1.1626,-1.1618,-1.1631,-1.1657,-1.1676,-1.1681,-1.1686,-1.1703,-1.1709,-1.1635,-1.1635,-1.1635,0,-1.1427,-1.1458,-1.1456,-1.148,-1.1491,-1.148,-1.1507,-1.1516,-1.1535,-1.1543,-1.1532,-1.1572,-1.1581,-1.1617,-1.1628,-1.1636,-1.1643,-1.163,-1.1681,-1.1686,-1.169,-1.1706,-1.1712,-1.1637,-1.1637,-1.1637,-1.1636,0,-1.1484,-1.1506,-1.1525,-1.1544,-1.1557,-1.1583,-1.1584,-1.1597,-1.1593,-1.1596,-1.1626,-1.1635,-1.1655,-1.1663,-1.166,-1.1698,-1.1692,-1.1681,-1.1662,-1.1698,-1.1713,-1.1719,-1.1639,-1.1639,-1.1638,-1.1638,0,0,-1.1543,-1.156,-1.1567,-1.1575,-1.159,-1.1606,-1.1631,-1.165,-1.1661,-1.1674,-1.1695,-1.1722,-1.1712,-1.1722,-1.172,-1.1737,-1.1773,-1.1723,-1.1724,-1.1732,-1.1816,-1.1825,-1.1832,-1.1768,-1.1769,-1.177,-1.1815,0,-1.1589,-1.1632,-1.163,-1.167,-1.169,-1.1679,-1.17,-1.1711,-1.1714,-1.1731,-1.1734,-1.1754,-1.1739,-1.1745,-1.1761,-1.1765,-1.179,-1.1762,-1.1786,-1.1787,-1.1784,-1.184,-1.1849,-1.1892,-1.1821,-1.1822,-1.1823,0,-1.1648,-1.1663,-1.1706,-1.1716,-1.1725,-1.1744,-1.1761,-1.1777,-1.1789,-1.179,-1.1801,-1.1796,-1.182,-1.1799,-1.1832,-1.1813,-1.1823,-1.1826,-1.1828,-1.183,-1.1808,-1.1844,-1.1905,-1.1912,-1.1832,-1.1831,-1.183,0,-1.1688,-1.1718,-1.1748,-1.1755,-1.1768,-1.1782,-1.1788,-1.1798,-1.181,-1.1824,-1.1831,-1.1848,-1.1858,-1.1871,-1.187,-1.1855,-1.1903,-1.1883,-1.1905,-1.1905,-1.1916,-1.1916,-1.198,-1.1921,-1.1921,-1.1921,-1.1921,0,-1.1739,-1.1765,-1.1766,-1.1784,-1.1812,-1.1809,-1.1838,-1.1842,-1.1852,-1.187,-1.1861,-1.1879,-1.1876,-1.1893,-1.1892,-1.192,-1.1924,-1.1925,-1.1925,-1.1926,-1.1926,-1.1933,-1.1931,-1.1923,-1.1922,-1.1922,-1.1922,0,-1.1789,-1.179,-1.1821,-1.1831,-1.1834,-1.1854,-1.1863,-1.1879,-1.1881,-1.1904,-1.191,-1.1913,-1.1932,-1.1932,-1.1955,-1.1954,-1.1988,-1.1984,-1.1984,-1.1983,-1.2005,-1.2003,-1.2077,-1.2086,-1.2021,-1.2022,-1.2023,0,-1.1822,-1.1842,-1.1853,-1.1865,-1.1872,-1.1891,-1.1903,-1.19,-1.1912,-1.1926,-1.1941,-1.196,-1.1975,-1.2007,-1.2011,-1.2028,-1.2024,-1.2049,-1.2027,-1.2028,-1.2025,-1.2024,-1.2026,-1.2053,-1.2054,-1.2055,-1.2055,0,-1.1881,-1.188,-1.1897,-1.1914,-1.1928,-1.1941,-1.1953,-1.1963,-1.1962,-1.1975,-1.1996,-1.2007,-1.203,-1.2049,-1.2065,-1.207,-1.2063,-1.2062,-1.2068,-1.207,-1.207,-1.207,-1.1996,-1.206,-1.206,-1.2059,-1.2059,-1.2059,-1.1923,-1.194,-1.1951,-1.197,-1.1979,-1.199,-1.2006,-1.201,-1.2027,-1.2045,-1.2042,-1.2065,-1.2075,-1.2096,-1.2103,-1.212,-1.2111,-1.212,-1.2122,-1.2125,-1.2127,-1.2066,-1.2123,-1.2122,-1.2122,-1.2122,-1.2122,0,-1.1982,-1.1988,-1.2005,-1.2023,-1.2037,-1.2028,-1.2041,-1.2054,-1.2074,-1.2084,-1.2099,-1.2121,-1.2139,-1.2144,-1.2161,-1.2174,-1.2171,-1.2179,-1.2178,-1.2179,-1.2134,-1.2127,-1.2181,-1.2181,-1.2181,-1.2181,-1.2181,-1.2181,-1.2014,-1.2043,-1.2043,-1.2075,-1.2081,-1.2103,-1.2111,-1.2121,-1.213,-1.2155,-1.217,-1.2173,-1.2181,-1.2199,-1.2214,-1.2215,-1.2222,-1.2231,-1.2231,-1.2188,-1.2183,-1.2177,-1.2171,-1.2233,-1.2233,-1.2275,-1.2275,-1.2276]},{"header":{"parameterUnit":"m.s-1","parameterCategory":1,"la1":30.2991,"la2":30.254,"lo1":-89.0895,"lo2":-89.0444,"dy":0.0017,"dx":0.0017,"nx":28,"ny":28,"refTime":"2023-10-31T09:00:00:Z","depth":0,"parameterNumber":3,"parameterNumberName":"V-component_of_WINDS"},"data":[0,0,0,0,0,0,0,0,0,0,0,0,0,0,0,0,0,0,0,0,0,0,0,0,0,0,0,0,0,0,0,0,0,0,0,0,0,0,0,0,0,0,0,0,0,0,0,0,0,0,0,0,0,0,0,0,0,0,-7.014,-7.0141,0,-7.0224,-7.0225,-7.0226,-7.0186,-7.0184,-7.0182,-7.018,-7.0259,-7.0263,-7.0267,0,0,0,0,0,0,0,0,0,0,0,0,0,-6.9941,-6.9944,-7.014,-7.0141,-7.0142,-7.0224,-7.0225,-7.0226,-7.0186,-7.0184,-7.0181,-7.0179,-7.0258,-7.0263,-7.0267,0,0,0,0,0,0,0,0,0,0,0,0,0,-7.0026,-6.9946,-7.014,-7.0132,-7.0133,-7.0224,-7.0225,-7.0226,-7.0187,-7.0184,-7.018,-7.0177,-7.0256,-7.0262,-7.0268,-7.037,0,0,-7.0287,-7.029,0,0,0,0,0,0,0,0,-7.0021,-7.0033,-7.0132,-7.0133,-7.0133,-7.0191,-7.0184,-7.0274,-7.0188,-7.0166,-7.018,-7.0176,-7.0239,-7.0246,-7.0269,-7.0373,-7.0377,-7.0287,-7.0291,-7.0294,-7.0296,0,0,0,0,0,0,0,-7.0015,-7.0029,-7.0173,-7.0134,-7.0135,-7.0123,-7.0132,-7.0201,-7.0219,-7.0168,-7.0165,-7.0176,-7.0238,-7.0263,-7.027,-7.0378,-7.0287,-7.0293,-7.0296,-7.0299,-7.0571,-7.0575,0,0,0,0,0,0,-7.001,-7.0025,-7.017,-7.0176,-7.0069,-7.0129,-7.0139,-7.0176,-7.0218,-7.0222,-7.0178,-7.0174,-7.0254,-7.0263,-7.0273,-7.0396,-7.0294,-7.0299,-7.0303,-7.0568,-7.0572,-7.0576,0,0,0,0,0,0,-7.0006,-7.0024,-7.0167,-7.01,-7.0117,-7.0136,-7.0178,-7.0179,-7.0204,-7.0226,-7.0229,-7.02,-7.0252,-7.0264,-7.0347,-7.0398,-7.0302,-7.0308,-7.0564,-7.0569,-7.0574,-7.0641,0,0,0,0,0,0,-7.0001,-7.0023,-7.0062,-7.0101,-7.0121,-7.0241,-7.0181,-7.0183,-7.0215,-7.021,-7.0248,-7.0251,-7.025,-7.0338,-7.0353,-7.0404,-7.0313,-7.0559,-7.0566,-7.0572,-7.0635,-7.0648,-7.066,0,0,0,0,0,-6.9994,-7.0076,-7.0065,-7.0082,-7.0171,-7.0244,-7.0255,-7.0255,-7.0219,-7.0259,-7.0274,-7.025,-7.039,-7.0346,-7.0363,-7.0417,-7.0556,-7.0564,-7.0572,-7.0629,-7.0646,-7.066,0,0,0,0,0,0,-7.004,-7.0081,-7.0069,-7.0166,-7.0203,-7.0237,-7.0287,-7.0272,-7.0317,-7.031,-7.0305,-7.0314,-7.04,-7.0417,-7.0368,-7.0518,-7.0467,-7.0479,-7.0505,-7.0521,-7.0533,-7.0528,-7.0318,0,0,0,0,0,-7.0063,-7.0121,-7.0152,-7.0235,-7.0254,-7.0268,-7.0299,-7.0296,-7.0333,-7.0347,-7.0367,-7.0402,-7.0454,-7.0488,-7.0537,-7.0637,-7.0644,-7.0682,-7.0695,-7.0705,-7.0715,-7.077,-7.0788,-7.0602,-7.0602,-7.0602,0,0,-7.0108,-7.0137,-7.0174,-7.0245,-7.0273,-7.0332,-7.0281,-7.0344,-7.0388,-7.0356,-7.0436,-7.0453,-7.049,-7.0583,-7.0624,-7.0599,-7.0768,-7.0715,-7.0723,-7.0728,-7.078,-7.0798,-7.0813,-7.0608,-7.0607,-7.0606,0,0,-7.0221,-7.0249,-7.0323,-7.0352,-7.0396,-7.0405,-7.0422,-7.046,-7.0471,-7.0552,-7.053,-7.0579,-7.0669,-7.0697,-7.0724,-7.085,-7.0829,-7.0865,-7.0932,-7.0985,-7.1,-7.1013,-7.1059,-7.1075,-7.0875,-7.0876,-7.0876,0,-7.0272,-7.0362,-7.0361,-7.0428,-7.0461,-7.0437,-7.0511,-7.0538,-7.0595,-7.0617,-7.0588,-7.0701,-7.0725,-7.0824,-7.0855,-7.0877,-7.0896,-7.0861,-7.0998,-7.1011,-7.1023,-7.1067,-7.1084,-7.088,-7.0879,-7.0879,-7.0879,0,-7.0422,-7.0484,-7.0538,-7.0596,-7.0634,-7.0704,-7.0713,-7.0751,-7.0745,-7.0757,-7.0839,-7.0868,-7.0923,-7.0945,-7.0938,-7.1044,-7.1027,-7.0999,-7.0947,-7.1045,-7.1086,-7.1103,-7.0886,-7.0884,-7.0883,-7.0882,0,0,-7.0566,-7.0626,-7.0645,-7.0672,-7.0719,-7.0767,-7.0835,-7.0891,-7.0924,-7.0964,-7.1021,-7.1098,-7.1073,-7.1102,-7.1098,-7.1146,-7.1245,-7.1111,-7.1112,-7.1136,-7.1364,-7.1386,-7.1405,-7.1232,-7.1235,-7.1237,-7.1361,0,-7.0684,-7.0807,-7.0809,-7.0921,-7.0979,-7.0958,-7.1018,-7.1052,-7.1065,-7.1115,-7.1127,-7.1183,-7.1145,-7.1163,-7.1208,-7.1223,-7.1291,-7.1214,-7.1284,-7.1287,-7.1276,-7.1426,-7.1449,-7.1565,-7.1377,-7.138,-7.1381,0,-7.0837,-7.0885,-7.1004,-7.1044,-7.1069,-7.1123,-7.1175,-7.1223,-7.1261,-7.1267,-7.1302,-7.1292,-7.136,-7.1307,-7.1401,-7.1349,-7.1377,-7.1389,-7.1394,-7.14,-7.134,-7.1438,-7.1601,-7.1619,-7.1406,-7.1404,-7.1403,0,-7.0932,-7.1026,-7.111,-7.1133,-7.1182,-7.1221,-7.1242,-7.1278,-7.1312,-7.1357,-7.1379,-7.143,-7.1459,-7.1498,-7.1502,-7.1462,-7.1597,-7.1543,-7.1603,-7.1603,-7.1633,-7.1631,-7.1804,-7.165,-7.165,-7.1649,-7.1649,0,-7.1064,-7.1137,-7.1153,-7.1205,-7.1287,-7.1288,-7.1368,-7.1387,-7.1419,-7.1472,-7.1456,-7.1506,-7.1508,-7.1558,-7.1561,-7.1639,-7.1652,-7.1658,-7.1658,-7.166,-7.1659,-7.1679,-7.1671,-7.1654,-7.1653,-7.1652,-7.1651,0,-7.1183,-7.1197,-7.1287,-7.1328,-7.1339,-7.1398,-7.1431,-7.1479,-7.1491,-7.1559,-7.1575,-7.1593,-7.1653,-7.166,-7.1728,-7.173,-7.1825,-7.1815,-7.1813,-7.1811,-7.1871,-7.1866,-7.2063,-7.209,-7.1918,-7.192,-7.1921,0,-7.1267,-7.1324,-7.1371,-7.1407,-7.1432,-7.149,-7.1525,-7.1529,-7.1566,-7.1616,-7.1658,-7.1717,-7.1763,-7.1859,-7.1877,-7.1929,-7.1922,-7.1987,-7.1929,-7.193,-7.1924,-7.1921,-7.1927,-7.1998,-7.2,-7.2002,-7.2003,0,-7.1414,-7.1419,-7.1472,-7.1529,-7.1573,-7.1616,-7.1657,-7.1687,-7.1696,-7.1739,-7.1801,-7.1838,-7.1909,-7.1967,-7.2019,-7.2039,-7.2023,-7.2021,-7.2038,-7.2041,-7.2038,-7.2042,-7.1844,-7.2017,-7.2015,-7.2014,-7.2014,-7.2013,-7.1519,-7.1569,-7.1611,-7.1671,-7.1703,-7.1743,-7.1791,-7.181,-7.1863,-7.1923,-7.1921,-7.199,-7.2027,-7.2096,-7.212,-7.2172,-7.215,-7.2174,-7.2181,-7.2187,-7.2194,-7.2029,-7.2181,-7.2181,-7.2181,-7.218,-7.218,0,-7.1666,-7.1692,-7.1748,-7.1808,-7.1855,-7.1838,-7.1883,-7.1924,-7.1985,-7.2022,-7.207,-7.2141,-7.2198,-7.2221,-7.2276,-7.2314,-7.2308,-7.2328,-7.2326,-7.2331,-7.2209,-7.219,-7.2332,-7.2332,-7.2332,-7.2332,-7.2332,-7.2332,-7.1748,-7.1833,-7.1843,-7.1943,-7.1968,-7.2037,-7.2064,-7.21,-7.213,-7.2212,-7.226,-7.2276,-7.2308,-7.2365,-7.2416,-7.2421,-7.2442,-7.2467,-7.2468,-7.2355,-7.2339,-7.2325,-7.2306,-7.2471,-7.2471,-7.2586,-7.2587,-7.2588]}]]